User: anonymous   Login
Location: *
(45.1961°N, 1.9694°E)
Time: 23:31:52
(UTC+00:00)
Language:

Cosmos 1743 - Orbit

View from above orbital plane
View from above orbital plane
View from above satellite
View from above satellite

Ground track
Ground track

The orbit data is extracted from the following two-line orbital elements,

1 16719U 86034A   19289.97730758  .00000017  00000-0 -80184-6 0  9996
2 16719  82.5526 237.2285 0011127 206.4769 200.9291 15.15517990824694
Epoch (UTC): 16 October 2019 23:27:19
Eccentricity: 0.0011127
inclination: 82.5526°
perigee height: 512 km
apogee height: 527 km
right ascension of ascending node: 237.2285°
argument of perigee: 206.4769°
revolutions per day: 15.15517990
mean anomaly at epoch: 200.9291°
orbit number at epoch: 82469

The dashed part of the orbit path shows where the satellite is in the earth's shadow,  

DLR